Location: Newark
(41.2758°N, 92.6808°W)
Time: 16:33:57
(UTC+00:00)

Envisat - Pass Details

Date: 29 September 2019
Orbit: 764 x 766 km, 98.1° (Epoch: 15 October)

Event Time Altitude Azimuth Distance (km) Brightness Sun altitude
Rises 00:25:10 0° 170° (S) 3,217 6.1 -5.9°
Reaches altitude 10° 00:27:28 10° 172° (S) 2,295 5.4 -6.4°
Maximum altitude 00:32:32 74° 258° (WSW) 798 3.3 -7.3°
Drops below altitude 10° 00:37:37 10° 344° (NNW) 2,311 5.8 -8.3°
Sets 00:39:57 0° 346° (NNW) 3,241 6.5 -8.7°
